Theta_e
286 287 287 288 288 289 288 289 289 290 290 290 289 288 289 289 288 288 287 287 286 286 286 286 287 288 287 288 288 288 286 286 283 285 286 287 287 287 288 288 288 288 288
286 286 286 287 287 286 287 288 289 289 289 289 289 288 288 288 288 287 286 287 286 285 285 285 287 287 286 287 287 286 285 286 284 281 284 284 285 286 287 287 287 288 287
285 284 284 284 285 285 285 287 288 288 288 288 288 287 287 287 287 287 287 286 285 285 285 285 286 286 285 285 284 284 285 284 284 282 282 284 285 285 284 284 284 285 287
282 282 282 283 283 284 284 285 286 287 287 287 287 287 287 287 287 286 286 285 284 284 285 286 286 285 285 284 283 283 283 282 282 282 281 282 282 283 283 281 281 283 284
280 279 281 282 283 284 283 283 284 285 286 287 286 285 286 286 287 285 285 284 283 283 284 285 284 285 285 285 283 282 281 281 281 280 280 281 281 281 280 282 281 281 283
278 279 279 279 280 280 281 282 282 283 284 284 285 284 284 286 289 290 287 283 283 281 280 280 282 283 284 284 284 285 283 281 281 280 280 280 280 280 281 280 280 279 278
276 278 277 278 279 279 279 280 279 280 282 282 283 284 284 284 289 289 288 282 281 280 279 280 279 280 280 280 283 283 283 283 284 283 281 280 279 280 281 279 279 279 278
276 276 276 277 279 279 280 279 278 279 279 280 281 283 283 283 288 289 287 282 280 279 279 278 278 279 278 278 281 280 279 281 283 283 282 282 282 283 283 282 280 280 280
275 276 275 276 279 280 279 280 278 277 278 279 281 283 284 283 287 288 286 284 282 279 279 279 279 278 281 284 277 275 279 281 284 284 284 284 285 285 284 281 275 276 276
277 276 276 277 279 279 279 280 280 278 278 279 280 283 284 284 286 287 286 283 280 279 277 279 282 278 283 283 278 279 278 279 280 280 279 281 281 279 282 279 278 276 276
280 277 276 277 278 279 279 279 280 278 277 278 279 282 283 283 280 287 286 283 281 278 279 278 278 283 282 282 283 280 278 281 279 278 279 278 275 274 275 278 278 277 276
278 278 278 278 278 279 277 277 279 280 278 278 279 280 282 283 283 285 286 285 284 280 279 278 277 282 282 282 281 281 281 279 277 277 277 271 277 272 275 278 279 278 278
276 276 276 276 277 278 276 276 278 280 278 278 279 279 280 281 282 284 284 285 285 281 280 281 282 282 280 278 280 280 274 276 275 275 274 271 277 275 274 276 275 275 279
274 275 276 275 275 275 275 276 279 280 278 278 278 279 280 280 280 280 280 281 283 283 282 277 277 278 279 279 274 275 273 275 275 276 276 275 274 272 272 272 270 275 276
275 275 275 274 274 273 274 275 279 281 280 278 278 279 279 278 280 281 280 278 278 279 269 267 268 270 269 270 270 269 270 270 273 276 277 277 274 271 271 273 274 274 274
274 274 273 272 272 272 272 275 282 284 283 283 284 283 282 283 284 284 284 283 283 283 266 265 267 268 268 268 267 268 268 268 273 276 277 277 275 270 268 269 271 272 272
272 273 272 270 270 271 270 272 276 279 283 283 284 284 285 283 285 285 285 284 284 282 264 265 266 268 266 267 266 266 266 267 273 275 275 276 269 267 268 269 269 269 269
269 270 269 269 269 268 269 271 275 278 277 277 282 283 284 286 284 285 285 284 280 277 263 264 264 267 265 265 265 265 265 265 272 274 274 275 268 264 265 267 268 265 266
270 269 268 268 268 268 270 273 278 279 278 277 278 281 282 285 284 284 285 270 275 264 262 263 264 267 265 263 263 263 262 262 264 265 267 265 262 265 266 265 266 265 265
268 267 266 266 266 267 268 271 276 277 277 277 278 277 280 280 279 280 281 267 268 268 266 267 265 266 266 264 262 262 262 262 262 264 262 262 262 263 265 264 263 266 265
266 265 265 265 266 267 269 272 277 277 277 277 278 280 281 279 279 279 280 278 270 271 269 267 266 266 265 264 262 261 262 261 260 261 264 262 260 265 262 264 265 264 263
265 265 264 263 264 267 270 274 278 278 277 277 279 280 283 280 279 279 280 280 274 270 270 269 267 267 267 266 264 263 263 262 260 261 263 264 264 263 262 263 264 263 262
265 263 263 264 265 267 269 273 278 278 277 278 278 279 281 280 280 280 280 280 273 270 269 268 267 265 264 264 263 265 265 264 264 264 265 264 263 263 262 263 263 263 263
263 263 263 263 265 266 269 273 278 278 278 278 278 279 280 281 280 280 280 277 271 268 269 269 268 266 264 263 263 262 263 261 262 263 264 266 264 262 262 261 260 258 262
263 262 262 263 264 266 269 273 277 278 278 278 278 279 280 281 281 280 278 275 271 268 266 266 267 265 264 263 263 263 266 264 262 262 263 262 262 260 260 261 259 259 258
262 261 261 262 264 266 268 273 277 277 277 278 278 278 279 280 281 278 276 274 271 268 266 266 265 264 263 263 263 263 264 266 264 264 264 264 263 261 261 259 258 259 256
Wind_Speed
6 6 6 6 6 6 6 6 7 6 7 7 7 7 7 8 7 6 7 6 7 6 6 7 8 8 6 6 7 7 10 9 13 12 11 12 14 15 16 14 14 14 12
6 6 7 7 7 6 6 7 7 7 7 7 7 8 8 8 7 8 8 7 7 6 6 6 8 6 8 8 7 11 11 10 10 16 14 11 14 14 14 14 12 12 12
6 6 7 7 7 7 7 7 8 9 8 8 9 10 10 9 8 9 8 7 7 6 6 6 7 8 10 10 11 10 8 9 9 11 13 11 11 10 12 11 10 11 9
7 7 7 8 7 7 8 10 10 9 10 10 9 10 10 9 9 9 8 8 7 6 6 5 8 7 9 11 10 9 9 10 9 10 12 13 11 11 8 9 10 8 10
6 7 8 8 7 9 9 10 11 11 11 12 10 9 9 10 9 9 9 7 7 6 6 7 7 8 15 16 10 8 12 9 8 10 12 11 10 10 10 8 10 10 11
7 9 8 7 7 8 9 10 10 11 12 11 12 11 10 10 16 17 11 7 6 6 5 6 7 8 13 16 16 17 16 10 12 11 11 11 13 11 8 9 10 10 8
7 8 8 8 8 9 9 9 10 11 11 12 12 11 12 11 18 17 16 5 5 5 6 7 6 5 7 6 11 17 16 17 19 14 14 12 13 11 11 13 11 10 11
8 8 7 7 10 10 10 10 10 9 11 11 11 12 11 10 19 19 15 6 6 7 6 6 7 8 7 6 8 10 9 10 9 7 9 10 11 11 9 9 11 11 10
7 8 7 6 11 10 10 12 10 9 10 11 11 12 12 10 19 20 17 10 11 9 7 7 7 7 10 13 5 8 11 9 8 14 16 19 18 16 14 6 5 6 8
8 7 6 7 11 13 12 13 12 9 11 10 12 12 13 12 18 22 18 9 11 6 5 6 11 7 13 9 5 8 11 8 7 8 8 10 7 8 10 5 6 6 5
9 7 6 8 11 13 14 12 14 10 10 11 12 11 12 11 11 22 22 11 9 6 6 4 3 9 8 9 13 7 7 8 9 7 6 3 4 4 3 4 5 4 4
7 9 10 11 11 12 13 14 17 11 11 12 11 10 10 11 13 20 22 22 16 7 6 3 3 8 7 10 8 8 9 8 4 4 3 2 3 3 2 4 5 5 4
8 12 10 12 13 13 13 16 14 11 9 10 8 9 10 8 8 20 19 21 22 11 4 6 8 9 5 4 7 5 4 1 3 2 2 2 2 4 3 2 4 4 6
10 12 12 13 15 13 11 12 13 9 8 9 9 9 9 7 7 8 9 10 17 12 10 4 4 5 5 5 4 1 2 2 2 2 2 2 2 3 3 2 2 3 2
11 11 12 12 13 13 13 13 13 11 11 10 10 10 9 10 10 12 12 9 7 7 5 2 1 1 0 1 2 2 2 2 2 2 2 2 2 2 3 2 2 2 5
12 11 10 11 11 11 12 13 22 24 20 24 26 16 7 16 16 20 20 19 18 16 3 3 3 3 3 2 1 1 2 2 2 2 1 2 2 2 2 3 2 5 6
11 12 10 11 11 11 10 12 12 10 19 22 25 24 23 11 19 18 19 18 18 16 3 3 3 4 3 3 2 2 2 1 1 3 2 1 2 2 3 4 4 4 6
9 13 11 10 11 11 11 12 11 10 8 8 16 20 21 19 17 17 19 17 10 9 3 4 4 4 3 3 2 2 1 2 2 2 1 2 3 2 3 4 4 4 4
10 9 9 10 10 12 12 13 12 10 9 8 5 12 15 20 17 18 22 4 8 4 3 3 4 4 4 3 3 3 3 2 3 3 2 2 2 3 5 4 5 6 5
8 12 12 10 10 11 11 12 13 8 8 8 8 8 8 9 10 10 10 4 4 4 4 5 4 5 5 4 3 3 3 2 3 4 3 3 3 3 5 5 4 6 6
7 8 11 10 10 10 12 11 11 6 7 7 8 8 17 12 11 11 10 9 6 7 7 5 5 5 5 5 4 4 4 3 3 3 4 4 3 5 4 5 6 5 5
8 8 8 10 10 11 11 12 8 7 8 8 7 8 24 11 9 9 9 10 7 6 6 7 6 6 6 6 5 5 5 4 4 4 4 5 5 5 4 5 6 5 4
8 8 9 9 10 12 11 11 9 7 7 7 7 7 10 10 9 9 9 8 7 7 6 6 6 5 4 5 4 5 6 5 5 5 7 5 5 5 4 5 5 5 5
9 9 9 10 9 9 10 11 8 8 8 7 7 8 9 10 9 10 8 7 7 6 7 7 7 8 7 5 5 4 5 4 4 5 6 8 7 6 5 5 5 5 6
8 8 9 9 9 9 10 11 9 7 7 7 7 7 8 9 9 8 8 7 7 7 7 6 6 9 9 10 8 9 8 9 7 7 5 7 9 8 6 6 5 5 5
8 8 9 9 9 9 10 12 8 7 7 7 7 7 8 9 9 8 8 8 8 7 8 6 7 11 11 8 9 10 10 11 9 9 7 8 9 7 6 7 8 5 5
Wind_Direction
337 323 322 314 310 303 292 276 260 261 252 239 225 218 221 220 219 222 221 217 222 227 237 243 259 268 263 266 267 272 278 279 282 291 295 299 302 297 300 295 291 288 286
318 314 310 310 313 318 309 303 289 261 248 242 228 223 223 222 214 219 224 226 224 227 236 242 260 269 274 276 274 280 286 287 286 294 297 299 291 288 289 285 281 284 287
306 305 299 297 299 298 295 294 295 292 268 244 234 229 228 224 219 222 221 222 222 224 229 239 260 261 274 283 283 282 280 285 288 289 293 292 290 295 293 289 285 288 281
299 295 288 287 282 281 288 294 292 287 283 269 238 231 226 222 222 221 221 220 222 224 226 241 265 256 264 279 282 284 289 290 291 285 286 293 295 295 284 298 299 300 298
279 278 279 276 270 276 281 286 288 286 283 279 262 233 228 224 223 220 217 217 218 222 226 252 249 255 276 276 279 283 283 284 285 286 289 293 298 309 303 306 295 306 300
267 275 279 274 267 264 273 279 282 284 284 278 269 244 227 228 231 226 211 208 211 206 219 235 240 259 271 278 279 285 280 286 286 288 292 291 300 302 304 302 303 305 310
259 266 268 274 274 272 272 269 274 282 284 274 268 258 238 228 228 225 221 199 210 217 216 236 246 240 251 246 273 283 285 281 276 285 294 295 295 298 294 292 289 281 281
258 256 257 270 277 274 271 265 270 275 275 274 267 259 247 228 224 230 221 204 218 226 222 227 235 253 239 248 273 272 275 268 276 275 277 292 288 293 292 298 301 298 290
262 263 264 272 288 283 279 284 268 270 275 271 264 257 247 240 227 227 226 226 234 230 227 227 229 246 257 278 278 275 284 291 280 297 305 302 302 320 315 313 303 301 303
270 263 262 279 288 285 286 291 281 257 268 269 265 253 245 241 226 228 224 227 236 230 231 230 237 235 258 279 261 272 292 296 303 312 305 297 306 312 343 334 310 294 286
272 268 273 284 290 286 285 290 288 266 265 264 259 253 246 234 223 226 222 222 228 220 229 220 219 251 273 291 286 280 271 305 322 297 285 293 317 312 317 333 329 311 288
258 270 276 284 286 284 281 288 280 258 263 264 255 259 249 238 219 230 229 229 226 219 224 204 211 263 289 298 295 277 308 343 299 293 302 319 325 316 325 338 336 341 337
264 270 276 282 285 278 279 282 274 256 252 260 248 248 249 229 225 230 228 227 229 224 205 225 250 270 301 306 282 296 60 339 290 296 317 291 293 299 316 314 328 328 37
265 274 284 284 287 278 275 275 269 252 247 250 245 243 241 225 212 213 219 225 229 225 223 232 228 242 264 261 246 52 82 267 267 309 305 283 322 355 1 345 355 328 338
269 274 282 284 281 282 273 271 265 246 237 245 244 237 227 226 220 208 198 198 197 194 125 85 140 135 85 338 288 78 55 13 351 338 336 338 4 8 351 356 359 340 43
271 278 281 284 281 280 278 284 273 256 244 254 255 239 236 234 230 216 210 204 199 188 93 173 192 146 162 202 164 67 79 348 1 348 24 7 27 21 16 11 21 43 49
259 278 282 278 276 273 277 275 281 252 253 263 252 245 239 218 232 217 205 198 190 170 152 183 177 149 162 193 145 133 171 234 359 26 18 27 62 32 47 39 33 47 52
251 264 267 270 271 270 267 265 263 258 259 259 247 236 232 227 221 211 193 181 181 187 160 164 180 150 159 165 135 129 107 75 88 92 41 39 50 85 62 59 51 57 61
267 269 270 270 267 269 268 272 260 250 242 247 227 225 221 210 215 208 192 160 182 175 182 166 169 148 151 143 142 121 119 119 114 107 66 70 69 101 86 72 78 60 61
260 261 263 268 269 268 267 264 272 233 231 233 224 208 192 184 200 193 189 140 163 181 168 170 175 143 145 146 141 134 122 108 100 100 88 79 66 72 89 88 70 86 71
266 268 260 265 263 262 262 259 256 222 233 229 225 195 192 192 195 190 185 188 187 180 176 164 167 148 147 142 133 121 121 119 114 116 112 99 88 95 85 85 91 85 88
258 259 267 268 268 266 268 283 234 226 228 225 216 192 199 195 189 190 191 197 177 167 165 162 163 165 161 151 148 135 133 139 129 125 114 108 104 98 96 92 93 88 83
261 261 263 266 269 272 277 273 248 223 228 219 202 187 197 187 189 190 192 187 157 159 152 152 145 149 145 139 137 144 146 163 161 146 131 121 114 111 105 106 107 97 91
269 263 264 268 266 267 270 275 252 224 225 214 195 192 197 184 187 189 181 157 151 148 149 154 153 156 145 134 123 118 125 131 128 138 131 127 122 111 103 97 97 96 101
261 263 267 271 269 267 274 271 253 233 219 207 193 189 195 184 182 170 158 153 154 152 154 148 149 152 152 145 139 132 134 126 127 130 117 113 119 115 110 110 111 96 92
256 262 264 263 263 263 268 272 243 229 211 199 188 185 187 184 175 161 158 155 155 154 153 149 152 146 147 144 138 134 133 132 129 125 122 124 124 118 114 116 110 112 112